Location: Recife
(8.0585°S, 34.8848°W)
Time: 19:32:00
(UTC-03:00)

Explorer 11/Cluster Stage 4 - Pass Details

Date: 17 April 2026
Orbit: 463 x 1174 km, 28.8° (Epoch: 19 May)

Event Time Altitude Azimuth Distance (km) Brightness Sun altitude
Rises 18:49:50 0° 298° (WNW) 3,651 11.2 -23.7°
Reaches altitude 10° 18:52:44 10° 297° (WNW) 2,592 10.2 -24.4°
Maximum altitude 18:58:55 81° 210° (SSW) 790 6.4 -25.9°
Enters shadow 18:59:19 75° 156° (SSE) 797 6.4 -26.0°
